Powrót do katalogu

STARLINK-4389

AktywnyŁącznośćSSO
NORAD 53475·PAYLOAD·🇺🇸 United States

Wystrzelony Aug 12, 2022 z Vandenberg Space Force Base

Loading…

Następne Przeloty (najbliższe 24 godziny)

TLE

ŚwieżeSource: CelesTrak SupGP

Epoka: Sep 14, 2026, 22:01 UTC

1 53475C 22099L   26257.91784722  .00614640  00000+0  15354-1 0  2574
2 53475  97.4967  25.0262 0001574  92.7017 286.3583 15.39890008    17

Śledź STARLINK-4389 w czasie rzeczywistym z AllMySat

Download on the App Store